Location: Huntsville
(41.2590°N, 111.7678°W)
Time: 21:21:01
(UTC+00:00)

Courier 1B - All Passes

Search period start: 13 June 2021 00:00
Search period end: 23 June 2021 00:00
Orbit: 962 x 1209 km, 28.3° (Epoch: 12 June)

Date Brightness Start Highest point End Pass type
(mag) Time Alt. Az. Time Alt. Az. Time Alt. Az.
13 Jun - 00:44:21 10° WSW 00:50:16 28° S 00:55:54 10° SE daylight
13 Jun - 02:38:54 10° WSW 02:43:22 18° SSW 02:47:42 10° SSE daylight
13 Jun - 20:08:13 10° SSE 20:10:09 11° SSE 20:12:04 10° SE daylight
13 Jun - 21:57:37 10° SW 22:03:19 23° SSE 22:08:48 10° ESE daylight
13 Jun - 23:50:30 10° WSW 23:56:38 29° S 00:02:28 10° SE daylight
14 Jun - 01:44:40 10° WSW 01:49:50 22° SSW 01:54:49 10° SSE daylight
14 Jun - 21:04:17 10° SSW 21:09:39 21° SSE 21:14:51 10° ESE daylight
14 Jun - 22:56:43 10° SW 23:02:58 29° S 23:08:56 10° ESE daylight
15 Jun - 00:50:34 10° WSW 00:56:16 25° SSW 01:01:42 10° SE daylight
15 Jun - 02:46:29 10° SW 02:49:14 13° SSW 02:51:56 10° S daylight
15 Jun - 20:11:12 10° SSW 20:15:59 18° SSE 20:20:40 10° ESE daylight
15 Jun - 22:03:00 10° SW 22:09:17 28° S 22:15:19 10° ESE daylight
15 Jun - 23:56:34 10° WSW 00:02:39 28° S 00:08:27 10° SE daylight
16 Jun - 01:51:34 10° WSW 01:55:44 16° SSW 01:59:48 10° SSE daylight
16 Jun - 19:18:32 10° S 19:22:20 14° SSE 19:26:07 10° SE daylight
16 Jun - 21:09:25 10° SW 21:15:35 26° S 21:21:34 10° ESE daylight
16 Jun - 23:02:38 10° WSW 23:08:59 29° S 23:15:03 10° SE daylight
17 Jun - 00:57:07 10° WSW 01:02:12 20° SSW 01:07:06 10° SSE daylight
17 Jun - 18:26:56 10° SSE 18:28:43 11° SSE 18:30:29 10° SE daylight
17 Jun - 20:15:58 10° SW 20:21:52 24° SSE 20:27:40 10° ESE daylight
17 Jun - 22:08:46 10° WSW 22:15:17 30° S 22:21:32 10° ESE daylight
18 Jun - 00:02:53 10° WSW 00:08:36 24° SSW 00:14:05 10° SE daylight
18 Jun - 02:00:11 10° SW 02:01:34 11° SSW 02:02:56 10° SSW daylight
18 Jun - 19:22:43 10° SSW 19:28:11 21° SSE 19:33:35 10° ESE daylight
18 Jun - 21:15:01 10° SW 21:21:33 30° S 21:27:54 10° ESE daylight
18 Jun - 23:08:47 10° WSW 23:14:58 27° S 23:20:53 10° SE daylight
19 Jun - 01:04:20 10° SW 01:08:03 15° SSW 01:11:39 10° S daylight
19 Jun - 18:29:45 10° SSW 18:34:31 17° SSE 18:39:15 10° ESE daylight
19 Jun - 20:21:21 10° SW 20:27:49 29° S 20:34:09 10° ESE daylight
19 Jun - 22:14:48 10° WSW 22:21:16 29° S 22:27:31 10° SE daylight
20 Jun - 00:09:38 10° WSW 00:14:29 18° SSW 00:19:12 10° SSE daylight
20 Jun - 17:37:18 10° S 17:40:52 14° SSE 17:44:27 10° SE daylight
20 Jun - 19:27:50 10° SW 19:34:05 26° SSE 19:40:17 10° ESE daylight
20 Jun - 21:20:54 10° WSW 21:27:33 31° S 21:33:59 10° SE daylight
20 Jun - 23:15:15 10° WSW 23:20:53 22° SSW 23:26:19 10° SSE daylight
21 Jun - 18:34:29 10° SSW 18:40:22 23° SSE 18:46:15 10° ESE daylight
21 Jun - 20:27:07 10° WSW 20:33:47 31° S 20:40:22 10° ESE daylight
21 Jun - 22:21:05 10° WSW 22:27:13 26° SSW 22:33:10 10° SE daylight
22 Jun - 00:17:24 10° SW 00:20:17 12° SSW 00:23:08 10° S daylight
22 Jun - 17:41:23 10° SSW 17:46:40 20° SSE 17:52:01 10° ESE daylight
22 Jun - 19:33:25 10° SW 19:40:02 30° S 19:46:36 10° ESE daylight
22 Jun - 21:27:03 10° WSW 21:33:30 28° S 21:39:49 10° SE daylight
22 Jun - 23:22:16 10° WSW 23:26:43 16° SSW 23:31:04 10° SSE daylight
